DELTA 1 DEB, 2223

Orbit data source: Space-Track

DELTA 1 DEB, 2223 is space debris in SSO originally from a launch on Mon, 28 Feb 1966 UTC launched from the Air Force Eastern Test Range (AFETR). Debris objects in space refer to the collection of defunct objects orbiting the Earth. Examples of debris include non-operational satellites, rocket bodies, and fragments generated from explosions, collisions, or faulty payload assembly.

Loading next visibility...
DELTA 1 DEB details
Identifier
2223, 1966-016C
Orbit
SSO
Last TLE update4 days ago
Origin
Flag of USGSFC (US)
ManufacturerUnknown
MissionSpacecraft
Bus & MotorUnknown
Mass1 kg wet, 1 kg dry
Launch date (UTC)
1966-02-28 (59 years ago)
Launch vehicleUnknown
Launch site
Air Force Eastern Test Range (AFETR)
Object type
Payload
Rocket body
Debris
Shape & HBRCyl + 1 Cable, 3.5 m
Radar Cross Section3.500 m², Small (<0.1 m²)

Expand to show TLE details & history

TLE from 4 days ago
0 DELTA 1 DEB
1 02223U 66016C   25020.07658948 -.00000017  00000-0  10351-3 0  9996
2 02223 100.7960  60.7143 0093484 230.5429 157.4393 12.87745523760917
Epoch: 2025-01-20T01:50Z
Definitive object data (Epoch: 2025-01-20T01:50:17.331Z)
Latitude27.88251°
Longitude-92.32191°
Altitude1,380.177 km
Speed7.14 km/s
True Right ascension03h 39m 48s
True Declination27° 45' 07"
Sunlit
Object was in daylight at TLE epoch
Visualization TLE readout
Latitude-64.06582°
Longitude74.0617°
Altitude1,268.772 km
Speed7.252 km/s
Apparent Right ascension10h 23m 05s
Apparent Declination-64° 27' 57"
Sunlit
Object is in daylight
Visualization observer readout
Local Sidereal Time19:48:58
Azimuth209.443° SW
Elevation-56.889°
Doppler factor1
Orbital elements
Apogee altitude1,379.779 km
Perigee altitude1,236.074 km
Semi-major axis7,686.064 km
Eccentricity0.0093484
Inclination100.796°
RAAN60.7143°
Arg. of periapsis230.5429°
True anomaly157.8459°
Mean anomaly157.4393°
Eccentric anomaly157.64304°
Mean motion3.22097 °/min
BSTAR0.00010351
Orbital period111.77 mins
Loading maneuver chart data...
Loading historical data...
Loading historical data...
Loading historical data...
Loading historical data...
Loading historical data...
Loading historical data...
Loading historical data...
Other satellites on launch #16 in the year 1966 (1966-02-28 UTC)

DELTA 1 DEB Visibility forecast

Observer location: undefined°, undefined

Span
Click to sort rows by Start time (UTC) header in descending order
Start Az.
Max El. time (UTC)
Max El. Az.
Max El.
End time (UTC)
End Az.
12 mins2025-01-24 00:56:03.424Z110.502° ESE2025-01-24 01:02:03.424Z57.967° ENE25.482°2025-01-24 01:08:03.424Z5.841° NNE
14 mins2025-01-24 02:45:03.424Z177.329° S2025-01-24 02:51:03.424Z243.72° WSW42.31°2025-01-24 02:59:03.424Z338.027° N
12 mins2025-01-24 14:29:03.424Z39.147° NE2025-01-24 14:35:03.424Z101.489° ESE29.003°2025-01-24 14:41:03.424Z157.902° S
12 mins2025-01-24 16:19:03.424Z1.442° NNE2025-01-24 16:25:03.424Z290.119° WNW36.908°2025-01-24 16:31:03.424Z225.978° WSW
|